Regional Weather Roundup
Issued by NWS

Home | Current Version | Previous Version | Graphics & Text | Print | Product List | Glossary On
Versions: 1 2 3 4 5 6 7 8 9 10 11 12 13 14 15 16 17 18 19 20 21 22 23 24 25 26 27 28 29 30 31 32 33 34 35 36 37 38 39 40 41 42 43 44 45 46 47 48 49 50
000
ASUS45 KTFX 270810
RWRMT
MONTANA REGIONAL WEATHER ROUNDUP
NATIONAL WEATHER SERVICE GREAT FALLS MT
200 AM MDT TUE SEP 27 2016

NOTE: "FAIR" INDICATES FEW OR NO CLOUDS BELOW 12000 FEET WITH NO
SIGNIFICANT WEATHER AND/OR OBSTRUCTIONS TO VISIBILITY.

MTZ001>007-043-270900-
WEST OF THE DIVIDE

CITY           SKY/WX    TMP DP  RH WIND       PRES   REMARKS
KALISPELL      CLEAR     42  41  96 CALM      30.08S
MISSOULA       CLEAR     50  45  83 CALM      30.14S
BUTTE          CLEAR     40  36  86 CALM      30.26F
MULLAN PASS    CLEAR     59  37  44 S7        30.21F
ANACONDA         N/A     52  36  54 S8        30.21F
DEER LODGE       N/A     45  37  76 CALM      30.22F
EUREKA           N/A     57  45  62 CALM      30.03S
HAMILTON         N/A     59  43  55 S8        30.14F
LIBBY            N/A     46  45  93 CALM      30.04S
PLAINS           N/A     46  40  79 CALM      30.08S
RONAN            N/A     44  40  86 CALM      30.12S
THOMPSON FALLS   N/A     46  43  90 CALM      30.11F
$$

MTZ008-052>055-270900-
SOUTHWEST MONTANA

CITY           SKY/WX    TMP DP  RH WIND       PRES   REMARKS
BOZEMAN        CLEAR     41  37  86 E3        30.20F
DILLON         CLEAR     50  38  63 S12       30.24F
W YELLOWSTONE    N/A     32  32 100 CALM      30.38S
ENNIS          CLEAR     50  36  57 CALM      30.31S
THREE FORKS      N/A     43  21  41 CALM      30.16F
TWIN BRIDGES     N/A     44  36  73 SE5       30.20S
$$

MTZ009-010-012-014-046-048-049-054-270900-
EAST SLOPES AND CENTRAL MONTANA

CITY           SKY/WX    TMP DP  RH WIND       PRES   REMARKS
CUT BANK       CLEAR     59  42  53 W13       30.02F
GREAT FALLS    CLEAR     57  40  52 SW18      30.06F
MALMSTROM AFB  CLEAR     56  41  56 W7        30.06S
HELENA         CLEAR     53  41  63 CALM      30.14F
AUGUSTA          N/A     56  38  49 SW9       30.09F
BOWMANS CRNR     N/A     56  40  54 S10       30.09F
CHOTEAU          N/A     59  39  47 SW7       30.08F
CONRAD           N/A     50  43  77 S3        30.04F
FAIRFIELD        N/A     59  39  48 SW2       30.06F
POWER            N/A     53  40  61 W6        30.06S
RAYNESFORD       N/A     59  40  48 W6        30.08F
$$

MTZ011-013-016-021-045-047-050-051-270900-
NORTH CENTRAL MONTANA

CITY           SKY/WX    TMP DP  RH WIND       PRES   REMARKS
HAVRE          CLEAR     49  45  86 SW5       29.98F
LEWISTOWN      CLEAR     47  40  76 E7        30.10F
N BAR RANCH      N/A     54  37  54 NW5       30.14S
CHINOOK          N/A     45  45 100 CALM      29.98S
DENTON           N/A     54  41  60 S14       30.03S
GEYSER           N/A     56  38  49 SW9       30.09F
GRASS RANGE      N/A     58  40  51 W13       30.05S
JUDITH GAP       N/A     51  39  63 MISG      30.13F
ROY              N/A     60  43  52 MISG      30.04S
STANFORD         N/A     64  36  35 S5        30.09F
WINIFRED         N/A     62  39  42 MISG      30.05F
$$

MTZ017>020-022>027-061-062-270900-
NORTHEAST MONTANA

CITY           SKY/WX    TMP DP  RH WIND       PRES   REMARKS
GLASGOW        CLEAR     50  44  80 E9        30.00F
JORDAN           N/A     43  40  89 CALM      30.03F
SIDNEY         CLEAR     42  39  89 CALM      30.05F
WOLF POINT     CLEAR     43  40  89 CALM      30.03F
POPLAR           N/A     45  39  81 N3        30.04F
SCOBEY           N/A     43  33  67 CALM      30.01F
$$

MTZ028>42-056>058-270900-
SOUTHCENTRAL AND SOUTHEAST MONTANA

CITY           SKY/WX    TMP DP  RH WIND       PRES   REMARKS
BAKER          CLEAR     42  39  89 CALM      30.10F
BILLINGS       CLEAR     62  43  49 SW20      30.11F
LIVINGSTON     CLEAR     49  38  65 NW15      30.18F
MILES CITY     CLEAR     51  45  79 S10       30.06F
BIG TIMBER     CLEAR     59  37  44 W14       30.18S
EKALAKA          N/A     52  41  66 SE1       30.09F
FORSYTH          N/A     52  48  87 CALM      30.06S
HARLOWTON        N/A     53  41  63 W9        30.13F
LAUREL           N/A     59  44  57 S1        30.10F
ROUNDUP          N/A     56  45  66 S9        30.01S
$$

REGIONAL REPORTS...DAKOTAS

CITY           SKY/WX    TMP DP  RH WIND       PRES   REMARKS
WILLISTON      CLEAR     39  36  89 S3        30.05F
MINOT          CLEAR     44  38  79 SW10      30.02F
DICKINSON      CLEAR     44  38  79 W3        30.05F
CROSBY           N/A     41  41 100 S7        30.05F
WATFORD CITY     N/A     41  39  93 CALM      30.05F
BISMARCK       CLEAR     43  38  82 SW6       30.05F
GRAND FORKS    CLEAR     41  36  82 W8        29.92F
FARGO          CLEAR     39  33  79 W8        29.93F
BUFFALO SD       N/A     53  42  66 W7        30.05F
RAPID CITY     CLEAR     45  39  79 W3        30.15F
$$

REGIONAL REPORTS...WYOMING/IDAHO/WASHINGTON

CITY           SKY/WX    TMP DP  RH WIND       PRES   REMARKS
GILLETTE       CLEAR     54  44  69 SW5       30.17F
SHERIDAN       CLEAR     45  40  82 CALM      30.15S
BUFFALO WY     CLEAR     55  32  41 W8        30.20F
CODY           CLEAR     48  45  89 CALM      30.24S
YELLOWSTONE LA   N/A     32  32 100 CALM      30.45F
IDAHO FALLS    CLOUDY    44  41  89 N6        30.27F
SALMON         CLEAR     45  43  93 CALM      30.23S
BOISE          CLEAR     62  42  47 SE9       30.11F
SPOKANE        CLEAR     64  41  42 S8        30.00F
$$

REGIONAL REPORTS...ALBERTA

CITY           SKY/WX    TMP DP  RH WIND       PRES   REMARKS
EDMONTON       PTCLDY    59  39  47 S8        29.73F
CALGARY        CLOUDY    61  37  41 S5        29.89S
LETHBRIDGE     CLEAR     61  43  51 SW14      29.92F
MEDICINE HAT   CLEAR     54  43  66 SW10      29.88F
WATERTON GATE    N/A     68  39  34 SW15G33     N/A
CARDSTON         N/A     61  41  48 S6          N/A
MILK RIVER       N/A     48  41  76 W7          N/A
ONEFOUR          N/A     43  37  81 SE5         N/A
$$

REGIONAL REPORTS...SASKATCHEWAN

CITY           SKY/WX    TMP DP  RH WIND       PRES   REMARKS
SWIFT CURRENT  CLEAR     52  45  76 S15       29.93F
REGINA         CLEAR     41  36  81 E8        30.01F
SASKATOON      CLEAR     46  37  71 SE7       29.95F
CYPRESS HILLS    N/A     50  39  66 SW2         N/A
VAL MARIE        N/A     43  39  87 SE1         N/A
ROCKGLEN         N/A     46  41  81 S7          N/A
ASSINIBOIA       N/A     50  45  81 S8          N/A
$$



USA.gov is the U.S. government's official web portal to all federal, state and local government web resources and services.